This is the latest recevied weather packets stored in our database for station/object E20EHQ-13. If no packets are shown the sender has not sent any weather packets the latest 1 day(s).
| Time | Temp. | Humidity | Pressure | Rain* | Wind** | Luminosity | Snow |
|---|---|---|---|---|---|---|---|
| 1778053680 | 33.89° C | 67% | 1005.3 hPa | 0 mm | - | 431 W/m² | - |
| 1778053379 | 34.44° C | 65% | 1005.4 hPa | 0 mm | - | 551 W/m² | - |
| 1778053079 | 34.44° C | 66% | 1005.5 hPa | 0 mm | - | 385 W/m² | - |
| 1778052479 | 34.44° C | 63% | 1005.7 hPa | 0 mm | - | 614 W/m² | - |
| 1778052179 | 34.44° C | 64% | 1005.7 hPa | 0 mm | - | 889 W/m² | - |
| 1778051879 | 33.89° C | 64% | 1005.7 hPa | 0 mm | - | 776 W/m² | - |
| 1778051279 | 34.44° C | 63% | 1005.8 hPa | 0 mm | - | 256 W/m² | - |
| 1778050979 | 34.44° C | 63% | 1006.1 hPa | 0 mm | - | 242 W/m² | - |
| 1778050679 | 34.44° C | 63% | 1006.1 hPa | 0 mm | - | 267 W/m² | - |
| 1778050080 | 34.44° C | 63% | 1006.1 hPa | 0 mm | - | 525 W/m² | - |
| 1778049779 | 35° C | 62% | 1006.2 hPa | 0 mm | - | 305 W/m² | - |
| 1778049480 | 34.44° C | 62% | 1006.2 hPa | 0 mm | - | 747 W/m² | - |
| 1778048879 | 34.44° C | 62% | 1006.4 hPa | 0 mm | - | 912 W/m² | - |
| 1778048579 | 34.44° C | 62% | 1006.6 hPa | 0 mm | - | 896 W/m² | - |
| 1778047979 | 34.44° C | 63% | 1006.8 hPa | 0 mm | - | 901 W/m² | - |
| 1778047679 | 33.89° C | 66% | 1006.9 hPa | 0 mm | - | 309 W/m² | - |
| 1778047379 | 33.89° C | 65% | 1006.9 hPa | 0 mm | - | 731 W/m² | - |
| 1778046779 | 33.89° C | 64% | 1007.1 hPa | 0 mm | - | 607 W/m² | - |
| 1778046479 | 33.89° C | 64% | 1007.2 hPa | 0 mm | - | 794 W/m² | - |
| 1778045280 | 33.89° C | 64% | 1007.5 hPa | 0 mm | - | 603 W/m² | - |
| 1778044679 | 33.89° C | 65% | 1007.8 hPa | 0 mm | - | 655 W/m² | - |
| 1778044379 | 33.33° C | 65% | 1007.9 hPa | 0 mm | - | 367 W/m² | - |
| 1778044079 | 33.33° C | 66% | 1007.9 hPa | 0 mm | - | 313 W/m² | - |
| 1778043479 | 33.33° C | 66% | 1008.1 hPa | 0 mm | - | 262 W/m² | - |
| 1778043179 | 33.89° C | 64% | 1008.3 hPa | 0 mm | - | 279 W/m² | - |
* Rain latest hour (hover to see other rain measurements)
** Current wind speed in m/s (hover to see current wind gust speed)